TimeEDT,TemperatureF,Dew PointF,Humidity,Sea Level PressureIn,VisibilityMPH,Wind Direction,Wind SpeedMPH,Gust SpeedMPH,PrecipitationIn,Events,Conditions,WindDirDegrees,DateUTC
12:54 AM,41.0,19.0,41,29.75,10.0,Variable,3.5,-,N/A,,Overcast,0,2014-03-15 04:54:00
1:54 AM,44.1,19.0,37,29.71,10.0,Variable,3.5,-,N/A,,Overcast,0,2014-03-15 05:54:00
2:54 AM,43.0,19.9,40,29.69,10.0,North,-9999.0,-,N/A,,Overcast,0,2014-03-15 06:54:00
3:54 AM,43.0,21.0,42,29.66,10.0,North,-9999.0,-,N/A,,Overcast,0,2014-03-15 07:54:00
4:54 AM,43.0,21.9,43,29.67,10.0,North,-9999.0,-,N/A,,Overcast,0,2014-03-15 08:54:00
5:54 AM,44.1,21.9,42,29.68,10.0,SSW,4.6,-,N/A,,Overcast,200,2014-03-15 09:54:00
6:54 AM,43.0,23.0,45,29.67,10.0,SSW,4.6,-,N/A,,Overcast,200,2014-03-15 10:54:00
7:54 AM,43.0,24.1,47,29.65,10.0,SSW,6.9,-,N/A,,Overcast,210,2014-03-15 11:54:00
8:54 AM,43.0,24.1,47,29.67,10.0,SW,6.9,-,N/A,,Overcast,220,2014-03-15 12:54:00
9:54 AM,45.0,26.1,48,29.68,10.0,SW,5.8,-,0.00,,Overcast,220,2014-03-15 13:54:00
10:54 AM,46.0,28.0,50,29.67,10.0,SSW,8.1,-,N/A,,Overcast,210,2014-03-15 14:54:00
11:54 AM,42.1,30.0,62,29.70,10.0,West,12.7,23.0,0.00,Rain,Light Rain,280,2014-03-15 15:54:00
12:54 PM,42.1,30.9,65,29.73,10.0,Variable,5.8,-,0.00,,Overcast,0,2014-03-15 16:54:00
1:54 PM,39.9,32.0,73,29.74,10.0,West,8.1,-,0.01,Rain,Light Rain,270,2014-03-15 17:54:00
2:54 PM,42.1,30.0,62,29.76,10.0,West,11.5,20.7,0.01,,Overcast,270,2014-03-15 18:54:00
3:54 PM,42.1,28.9,60,29.77,10.0,WNW,16.1,23.0,N/A,,Overcast,300,2014-03-15 19:54:00
4:54 PM,39.9,28.9,65,29.80,10.0,WNW,12.7,23.0,N/A,,Overcast,290,2014-03-15 20:54:00
5:54 PM,39.0,28.9,67,29.83,10.0,Variable,5.8,-,N/A,,Overcast,0,2014-03-15 21:54:00
6:54 PM,37.9,28.9,70,29.85,10.0,WSW,8.1,-,N/A,,Overcast,240,2014-03-15 22:54:00
7:01 PM,37.9,28.0,68,29.84,10.0,Variable,6.9,-,N/A,,Overcast,0,2014-03-15 23:01:00
7:54 PM,37.0,28.0,70,29.88,10.0,West,10.4,17.3,N/A,,Overcast,260,2014-03-15 23:54:00
8:18 PM,36.0,27.0,70,29.88,10.0,West,10.4,19.6,N/A,,Overcast,280,2014-03-16 00:18:00
8:28 PM,36.0,28.0,73,29.89,10.0,West,16.1,24.2,N/A,,Overcast,270,2014-03-16 00:28:00
8:42 PM,35.1,25.0,67,29.90,9.0,West,17.3,33.4,0.00,,Overcast,280,2014-03-16 00:42:00
8:54 PM,35.1,23.0,61,29.93,10.0,West,16.1,29.9,0.00,,Overcast,280,2014-03-16 00:54:00
9:54 PM,33.1,19.0,56,29.96,10.0,North,-9999.0,-,N/A,,Scattered Clouds,0,2014-03-16 01:54:00
10:54 PM,30.0,16.0,56,29.98,10.0,North,-9999.0,-,N/A,,Clear,0,2014-03-16 02:54:00
11:54 PM,28.9,15.1,56,29.99,10.0,West,10.4,21.9,N/A,,Mostly Cloudy,270,2014-03-16 03:54:00